RASCOM-QAF 1R

Last updated on Jan. 21, 2021, 6:16 a.m. UTC

1 36831U 10037B   21020.83962656  .00000027  00000-0  00000-0 0  9991
2 36831   0.0106  57.1077 0005346 239.8734 128.5831  1.00272103 38501
UTC
Height (km)
Latitude
Longitude
Inclination
Orbital Period
UTC large
Height (km)
Speed (km/s)
/
Latitude / Longitude
Inclination (degrees)
Orbital Period (minutes)
Azimuth
Elevation
Range (km)
Doppler Factor
iOS Compass Heading
iOS Angle

Next 30 passes for location: Hong Kong

Rise time Rise Azimuth (degrees) Set time Set Azimuth (degrees) Duration Max altitude (degrees)

No matching passes for this satellites